Location: Ab? ar R?sh Ba?r?
(24.1861°N, 32.8847°E)
Time: 23:06:55
(UTC+00:00)

H-2A R/B - Pass Details

Date: 24 October 2021
Orbit: 528 x 650 km, 98.3° (Epoch: 05 December)

Event Time Altitude Azimuth Distance (km) Brightness Sun altitude
Rises 16:35:39 0° 163° (SSE) 2,926 5.9 -19.1°
Reaches altitude 10° 16:37:52 10° 162° (SSE) 2,008 5.0 -19.6°
Maximum altitude 16:42:14 74° 77° (ENE) 645 2.4 -20.6°
Drops below altitude 10° 16:46:28 10° 352° (N) 1,950 5.1 -21.6°
Sets 16:48:36 0° 351° (N) 2,835 6.0 -22.1°
